Regional Weather Roundup
Issued by NWS

Home | Current Version | Previous Version | Text Only | Print | Product List | Glossary Off
Versions: 1 2 3 4 5 6 7 8 9 10 11 12 13 14 15 16 17 18 19 20 21 22 23 24 25 26 27 28 29 30 31 32 33 34 35 36 37 38 39 40 41 42 43 44 45 46 47 48 49 50

000
ASUS43 KFSD 020010
RWRSD

WEATHER ROUNDUP FOR SOUTH DAKOTA
NATIONAL WEATHER SERVICE SIOUX FALLS SD
700 PM CDT WED JUL 01 2015

NOTE: "FAIR" INDICATES FEW OR NO CLOUDS BELOW 12,000 FEET WITH NO
SIGNIFICANT WEATHER AND/OR OBSTRUCTIONS TO VISIBILITY.


SDZ001>005-009-010-012>017-020100-
NORTHWEST AND NORTH CENTRAL SOUTH DAKOTA

CITY           SKY/WX    TMP DP  RH WIND       PRES   REMARKS
BUFFALO          N/A     77  63  61 N9        29.94R
FAITH            N/A     78  62  57 NE8       29.96F
MOBRIDGE       CLOUDY    79  66  64 E6        29.90F
$$

SDZ012>016-024>037-041>051-057-063-072>074-020100-
SOUTHWEST AND SOUTH CENTRAL SOUTH DAKOTA

CITY           SKY/WX    TMP DP  RH WIND       PRES   REMARKS
RAPID CTY ARPT SUNNY     81  65  58 N18       29.97S
PIERRE         PTSUNNY   80  67  64 E8        29.88F
CUSTER         PTSUNNY   74  59  59 E7        30.13S HAZE
ELLSWORTH AFB  SUNNY     81  64  57 NE8       29.98S
PHILIP         SUNNY     81  65  58 NE8       29.93F
PINE RIDGE     SUNNY     83  61  47 NE7       29.98F
SPEARFISH      FAIR      79  59  50 N8        30.04F
WINNER         FAIR      82  64  54 E12       29.90S
$$

SDZ004>011-016>023-039-040-020100-
NORTHEAST SOUTH DAKOTA

CITY           SKY/WX    TMP DP  RH WIND       PRES   REMARKS
ABERDEEN       PTSUNNY   76  65  68 SE5       29.92S
WATERTOWN      MOSUNNY   70  56  61 SE12G17   29.96S
BROOKINGS      MOSUNNY  N/A N/A N/A E15       29.96F
SISSETON         N/A     73  57  57 S9        29.95S
$$

SDZ017-020-022-023-036>040-048>070-020100-
SOUTHEAST SOUTH DAKOTA

CITY           SKY/WX    TMP DP  RH WIND       PRES   REMARKS
SIOUX FALLS    PTSUNNY   74  62  66 E10       29.95S
HURON          RAIN      73  67  81 E10       29.89F
CHAMBERLAIN    MOSUNNY   78  66  66 SE5       29.90S
MITCHELL       MOSUNNY   76  67  73 E13       29.91S
YANKTON        MOSUNNY   75  64  69 E13       29.90S
$$

ABBREVIATIONS USED IN REMARKS
   TC - TEMPERATURE IN CELSIUS
  WCI - WIND CHILL INDEX
   HX - HEAT INDEX
  VSB - VISIBILITY



USA.gov is the U.S. government's official web portal to all federal, state and local government web resources and services.